Location: Peebles
(55.6412°N, 3.1714°W)
Time: 09:54:35
(UTC+01:00)

Cosmos 2369 Rocket - Pass Details

Date: 26 September 2021
Orbit: 830 x 851 km, 71.0° (Epoch: 20 October)

Event Time Altitude Azimuth Distance (km) Brightness Sun altitude
Rises 20:12:58 0° 193° (SSW) 3,391 5.4 -11.0°
Reaches altitude 10° 20:15:27 10° 189° (S) 2,457 4.6 -11.3°
Maximum altitude 20:20:54 52° 115° (ESE) 1,037 2.3 -12.0°
Drops below altitude 10° 20:26:21 10° 40° (NE) 2,459 4.4 -12.8°
Sets 20:28:50 0° 36° (NE) 3,394 5.2 -13.1°
